Renderfarm Status:OK
Avg Time Per Frame:19.9 min/frame
Total Users Today:13
Total CPU Time Today:188.33 Hours
Total Frames Waiting:4620
Today's CPU Champion:hsutar20 / 2 days 12 hr
Active Jobs
Job User Frames Renderer Total CPU Average Start End Status
11949 idahem20 61 rman 0 Hours 0 min 05/27 02:07 AM Ready
11947 yichai20 100 houdini 0 Hours 0 min 05/27 01:52 AM Ready
11945 fagmal20 51 mayatomr 0 Hours 0 min 05/27 01:36 AM Ready
11943 vgolla20 100 houdini 0 Hours 0 min 05/27 01:12 AM Ready
11942 showel20 100 rman 0 Hours 0 min 05/27 01:06 AM Ready
11941 sranap20 100 rman 0 Hours 0 min 05/27 01:03 AM Ready
11940 apatel24 100 rman 0 Hours 0 min 05/27 12:54 AM Ready
11937 mmckin22 100 rman 0 Hours 0 min 05/27 12:32 AM Ready
11936 zisong20 100 arnold 0 Hours 0 min 05/27 12:14 AM Ready
11935 aespin22 83 rman 0 Hours 0 min 05/27 12:09 AM Ready
11934 sstone26 5 mayatomr 0 Hours 0 min 05/27 12:05 AM Ready
11933 yonkoh20 100 rman 0 Hours 0 min 05/27 12:02 AM Ready
11932 bmoffi20 6 mayatomr 0 Hours 0 min 05/26 11:44 PM Ready
11931 adeedw20 50 arnold 0 Hours 0 min 05/26 10:54 PM Ready
11930 aberna24 100 mayatomr 0 Hours 0 min 05/26 10:50 PM Ready
11929 wawang20 6 mayatomr 0 Hours 0 min 05/26 10:49 PM Ready
11928 yickng20 18 houdini 0 Hours 0 min 05/26 10:44 PM Ready
11927 xuwang20 14 houdini 0 Hours 0 min 05/26 10:41 PM Ready
11925 svadda20 100 arnold 0 Hours 0 min 05/26 10:28 PM Ready
11924 atrout20 95 rman 0 Hours 0 min 05/26 10:11 PM Ready
11923 gchang21 100 arnold 0 Hours 0 min 05/26 09:27 PM Ready
11922 kjohns45 56 mayatomr 0 Hours 0 min 05/26 09:26 PM Ready
11921 nperez23 100 mayatomr 0 Hours 0 min 05/26 09:15 PM Ready
11920 cbeasl23 100 mayatomr 0 Hours 0 min 05/26 09:01 PM Ready
11919 jkoonc20 44 rman 0 Hours 0 min 05/26 08:51 PM Ready
11918 dmight20 5 rman 0 Hours 0 min 05/26 08:40 PM Ready
11917 acarri22 100 houdini 0 Hours 0 min 05/26 08:24 PM Ready
11916 zirali20 100 arnold 0 Hours 0 min 05/26 07:48 PM Ready
11914 asingh21 100 arnold 0 Hours 0 min 05/26 07:45 PM Ready
11913 szhang24 14 houdini 0 Hours 0 min 05/26 07:37 PM Ready
11912 jkriza20 100 mayatomr 0 Hours 0 min 05/26 07:29 PM Ready
11911 jhuang28 14 houdini 0 Hours 0 min 05/26 07:20 PM Ready
11910 chbyun20 100 mayatomr 0 Hours 0 min 05/26 06:54 PM Ready
11909 suhlee20 100 mayatomr 0 Hours 0 min 05/26 06:45 PM Ready
11908 apalme22 100 mayatomr 0 Hours 0 min 05/26 06:36 PM Ready
11907 shuang23 100 mayatomr 0 Hours 0 min 05/26 06:35 PM Ready
11906 chzhao21 100 mayatomr 0 Hours 0 min 05/26 06:18 PM Ready
11905 juboon20 100 houdini 0 Hours 0 min 05/26 06:17 PM Ready
11904 cychau20 100 houdini 0 Hours 0 min 05/26 06:16 PM Ready
11903 kwkwok20 100 houdini 0 Hours 0 min 05/26 06:16 PM Ready
11901 lreave20 100 houdini 0 Hours 0 min 05/26 06:14 PM Ready
11900 ylopez20 4 houdini 0 Hours 0 min 05/26 06:12 PM Ready
11899 lstemm20 15 houdini 0 Hours 0 min 05/26 06:10 PM Ready
11897 siyniu20 50 houdini 0 Hours 0 min 05/26 05:55 PM Ready
11896 wanlyu20 50 houdini 0 Hours 0 min 05/26 04:56 PM Ready
11895 athoma34 12 houdini 0 Hours 0 min 05/26 04:48 PM Ready
11894 mmccor27 67 arnold 0 Hours 0 min 05/26 04:45 PM Ready
11893 wachan20 100 houdini 0 Hours 0 min 05/26 04:43 PM Ready
11892 kerutz20 100 arnold 0 Hours 0 min 05/26 04:04 PM Ready
11891 tjones38 100 mayatomr 0 Hours 0 min 05/26 03:57 PM Ready
11889 heekim22 98 rman 0 Hours 0 min 05/26 03:36 PM Ready
11888 vnguye20 20 arnold 0 Hours 0 min 05/26 02:36 PM Ready
11887 jpagan21 67 arnold 0 Hours 0 min 05/26 02:33 PM Ready
11886 giaddy20 100 houdini 0 Hours 0 min 05/26 02:28 PM Ready
11885 johnam20 53 rman 0 Hours 0 min 05/26 02:15 PM Ready
11884 cgalla21 100 rman 0 Hours 0 min 05/26 01:55 PM Ready
11883 mnguye25 100 mayatomr 0 Hours 0 min 05/26 01:36 PM Ready
11882 bjagad20 72 rman 0 Hours 0 min 05/26 01:34 PM Ready
11880 awrigh32 100 houdini 0 Hours 0 min 05/26 01:18 PM Rendering
11878 imatta20 100 rman 12.21 Hours 19.8 min 05/26 01:09 PM Rendering
11876 jdring20 49 houdini 0.42 Hours 1 min 05/26 12:20 PM Rendering
11875 bmarti35 100 arnold 8.46 Hours 23.1 min 05/26 12:10 PM Rendering
11873 raihaq20 100 houdini 0 Hours 0 min 05/26 11:47 AM Ready
11872 mrhima20 50 houdini 0 Hours 0 min 05/26 11:44 AM Ready
11871 jlaird21 100 houdini 0 Hours 0 min 05/26 11:44 AM Rendering
11869 ivfung20 100 houdini 3.31 Hours 39.7 min 05/26 11:12 AM Rendering
11868 csandl20 72 houdini 44.76 Hours 37.8 min 05/26 10:39 AM Rendering
11861 hsutar20 100 rman 60.73 Hours 37.2 min 05/26 10:03 AM Rendering
Completed Jobs
Job User Frames Renderer Total CPU Average Start End Speedup Status
11948 trober24 100 rman 0 Hours 0 min 05/27 02:00 AM 0x Complete!
11946 yichai20 1 houdini 0 Hours 0 min 05/27 01:52 AM 05/27 01:52 AM 0x Complete!
11944 fagmal20 51 mayatomr 0 Hours 0 min 05/27 01:33 AM 05/27 01:35 AM 0x Complete!
11939 apatel24 100 rman 0 Hours 0 min 05/27 12:51 AM 05/27 12:54 AM 0x Complete!
11938 vgolla20 1 houdini 0 Hours 0 min 05/27 12:43 AM 05/27 01:11 AM 0x Complete!
11926 xuwang20 13 houdini 0 Hours 0 min 05/26 10:38 PM 05/26 10:40 PM 0x Complete!
11915 zirali20 1 arnold 0 Hours 0 min 05/26 07:48 PM 05/26 07:48 PM 0x Complete!
11902 zirali20 100 arnold 0 Hours 0 min 05/26 06:15 PM 05/26 07:37 PM 0x Complete!
11898 zirali20 100 arnold 0 Hours 0 min 05/26 06:03 PM 05/26 06:14 PM 0x Complete!
11890 aburke24 100 mayatomr 0 Hours 0 min 05/26 03:51 PM 05/26 04:19 PM 0x Complete!
11881 wawang20 6 mayatomr 0 Hours 0 min 05/26 01:30 PM 05/26 01:47 PM 0x Complete!
11879 awrigh32 100 houdini 0 Hours 0 min 05/26 01:10 PM 05/26 01:15 PM 0x Complete!
11877 narmst21 100 houdini 1.27 Hours 0.8 min 05/26 12:33 PM 05/27 02:00 AM 0.1x Complete!
11874 cgrass20 100 houdini 0 Hours 0 min 05/26 12:01 PM 05/27 12:18 AM 0x Complete!
11870 brwade20 100 mayatomr 10.69 Hours 6.4 min 05/26 11:38 AM 05/27 01:49 AM 0.8x Complete!
11867 heekim22 98 rman 0 Hours 0 min 05/26 10:30 AM 05/26 03:35 PM 0x Complete!
11866 jaelee23 100 mayatomr 6.76 Hours 4.1 min 05/26 10:28 AM 05/27 12:57 AM 0.5x Complete!
11865 jodale20 100 mayatomr 26.43 Hours 15.9 min 05/26 10:26 AM 05/27 12:50 AM 1.8x Complete!
11864 rschul23 100 mayatomr 2.28 Hours 1.4 min 05/26 10:24 AM 05/26 11:55 PM 0.2x Complete!
11863 dohlee20 78 mayatomr 4.74 Hours 3.6 min 05/26 10:16 AM 05/27 12:08 AM 0.3x Complete!
11862 haiqiu20 80 mayatomr 0 Hours 0 min 05/26 10:13 AM 05/27 12:18 AM 0x Complete!
11860 haiqiu20 80 mayatomr 0 Hours 0 min 05/26 09:55 AM 05/26 10:12 AM 0x Complete!
11859 aracho20 49 mayatomr 1.86 Hours 2.3 min 05/26 09:51 AM 05/26 10:09 PM 0.2x Complete!
11858 vvange20 100 rman 40.99 Hours 24.6 min 05/26 09:35 AM 05/27 12:06 AM 2.8x Complete!
11857 acheng21 19 mayatomr 16.12 Hours 50.9 min 05/26 09:22 AM 05/26 10:46 PM 1.2x Complete!
11856 xuwang20 16 houdini 2.15 Hours 8.1 min 05/26 09:05 AM 05/26 10:37 PM 0.2x Complete!
11855 sescar20 100 mayatomr 5.18 Hours 3.1 min 05/26 09:01 AM 05/26 09:01 PM 0.4x Complete!
11854 cbense21 50 rman 26.51 Hours 31.8 min 05/26 08:42 AM 05/26 11:17 PM 1.8x Complete!
11853 jelove20 100 mayatomr 0 Hours 0 min 05/26 08:35 AM 05/26 10:33 AM 0x Complete!
11852 jelove20 91 mayatomr 0 Hours 0 min 05/26 08:34 AM 05/26 08:34 AM 0x Complete!
11851 hakime20 14 houdini 10.01 Hours 42.9 min 05/26 08:28 AM 05/26 10:43 PM 0.7x Complete!
11850 dansoo20 100 houdini 14.2 Hours 8.5 min 05/26 08:23 AM 05/26 08:49 PM 1.1x Complete!
11849 dansoo20 100 houdini 0 Hours 0 min 05/26 08:22 AM 0x Complete!
11848 ratwat20 14 houdini 13.24 Hours 61.1 min 05/26 08:12 AM 05/26 09:55 PM 1x Complete!
11847 adeedw20 50 arnold 22.91 Hours 27.5 min 05/26 07:32 AM 05/26 08:27 PM 1.8x Complete!
11846 showel20 100 rman 10.58 Hours 6.3 min 05/26 07:24 AM 05/27 01:05 AM 0.6x Complete!
11845 fagmal20 60 rman 10.92 Hours 10.9 min 05/26 07:20 AM 05/26 07:00 PM 0.9x Complete!
11844 pbagch20 100 mayatomr 1.05 Hours 0.6 min 05/26 05:37 AM 05/26 06:17 PM 0.1x Complete!
11843 asingh21 100 arnold 62.74 Hours 37.6 min 05/26 05:11 AM 05/26 07:41 PM 4.3x Complete!
11842 szhang24 16 houdini 9.55 Hours 35.8 min 05/26 04:51 AM 05/26 07:32 PM 0.7x Complete!
11841 jhuang28 16 houdini 6.38 Hours 23.9 min 05/26 04:48 AM 05/26 05:56 PM 0.5x Complete!
11840 chzhao21 100 mayatomr 29.4 Hours 17.6 min 05/26 03:24 AM 05/26 06:03 PM 2x Complete!
11839 yickng20 100 houdini 65.24 Hours 39.1 min 05/26 02:56 AM 05/26 07:18 PM 4x Complete!
11838 lstemm20 100 houdini 31.27 Hours 18.8 min 05/26 02:55 AM 05/26 05:46 PM 2.1x Complete!
11837 abince20 31 rman 21.95 Hours 42.5 min 05/26 02:49 AM 05/26 05:31 PM 1.5x Complete!
11836 juboon20 100 houdini 0.49 Hours 0.3 min 05/26 02:49 AM 05/26 04:43 PM 0x Complete!
11835 agreen36 35 mayatomr 15.86 Hours 27.2 min 05/26 02:44 AM 05/26 03:39 PM 1.2x Complete!
11834 cychau20 100 houdini 0.44 Hours 0.3 min 05/26 02:39 AM 05/26 04:28 PM 0x Complete!
11833 ahocka20 15 mayatomr 9.95 Hours 39.8 min 05/26 02:35 AM 05/26 02:57 PM 0.8x Complete!
11832 ahocka20 15 mayatomr 0 Hours 0 min 05/26 02:34 AM 05/26 02:35 AM 0x Complete!
Copyright 2014 Savannah College of Art and Design